Time,TemperatureF,DewpointF,PressureIn,WindDirection,WindDirectionDegrees,WindSpeedMPH,WindSpeedGustMPH,Humidity,HourlyPrecipIn,Conditions,Clouds,dailyrainin,SolarRadiationWatts/m^2,SoftwareType,DateUTC
2013-04-03 00:02:00,46.0,44.0,-100.00,WNW,301,7.0,15.0,92,0.00,,,0.00,0.000000,,2013-04-03 07:02:00,
2013-04-03 00:11:00,46.0,44.0,-100.00,WNW,301,7.0,15.0,92,0.00,,,0.00,0.000000,,2013-04-03 07:11:00,
2013-04-03 00:33:00,45.0,44.0,-100.00,NW,318,5.0,13.0,95,0.00,,,-99.99,0.000000,,2013-04-03 07:33:00,
2013-04-03 00:42:00,45.0,44.0,-100.00,NW,318,5.0,13.0,95,0.00,,,-99.99,0.000000,,2013-04-03 07:42:00,
2013-04-03 00:53:00,45.0,44.0,-100.00,NW,318,5.0,13.0,95,0.00,,,-99.99,0.000000,,2013-04-03 07:53:00,
2013-04-03 01:02:00,45.0,44.0,-100.00,NW,318,5.0,13.0,95,0.00,,,-99.99,0.000000,,2013-04-03 08:02:00,
2013-04-03 01:12:00,45.0,44.0,-100.00,NW,318,5.0,13.0,95,0.00,,,-99.99,0.000000,,2013-04-03 08:12:00,
2013-04-03 01:33:00,45.0,44.0,-100.00,NW,313,6.0,11.0,96,0.00,,,0.00,0.000000,,2013-04-03 08:33:00,
2013-04-03 01:43:00,45.0,44.0,-100.00,NW,313,6.0,11.0,96,0.00,,,0.00,0.000000,,2013-04-03 08:43:00,
2013-04-03 01:52:00,45.0,44.0,-100.00,NW,313,6.0,11.0,96,0.00,,,0.00,0.000000,,2013-04-03 08:52:00,
2013-04-03 02:02:00,45.0,44.0,-100.00,NW,313,6.0,11.0,96,0.00,,,0.00,0.000000,,2013-04-03 09:02:00,
2013-04-03 02:11:00,45.0,44.0,-100.00,NW,313,6.0,11.0,96,0.00,,,0.00,0.000000,,2013-04-03 09:11:00,
2013-04-03 02:43:00,44.0,44.0,-100.00,WNW,290,4.0,10.0,100,0.00,,,0.00,0.000000,,2013-04-03 09:43:00,
2013-04-03 02:53:00,44.0,44.0,-100.00,WNW,290,4.0,10.0,100,0.00,,,0.00,0.000000,,2013-04-03 09:53:00,
2013-04-03 03:02:00,44.0,44.0,-100.00,WNW,290,4.0,10.0,100,0.00,,,0.00,0.000000,,2013-04-03 10:02:00,
2013-04-03 03:12:00,44.0,44.0,-100.00,WNW,290,4.0,10.0,100,0.00,,,0.00,0.000000,,2013-04-03 10:12:00,
2013-04-03 03:43:00,44.0,44.0,-100.00,WNW,291,4.0,10.0,100,0.00,,,0.00,0.000000,,2013-04-03 10:43:00,
2013-04-03 03:53:00,44.0,44.0,-100.00,WNW,291,4.0,10.0,100,0.00,,,0.00,0.000000,,2013-04-03 10:53:00,
2013-04-03 04:02:00,44.0,44.0,-100.00,WNW,291,4.0,10.0,100,0.00,,,0.00,0.000000,,2013-04-03 11:02:00,
2013-04-03 04:12:00,44.0,44.0,-100.00,WNW,291,4.0,10.0,100,0.00,,,0.00,0.000000,,2013-04-03 11:12:00,
2013-04-03 04:42:00,43.0,43.0,-100.00,NW,306,4.0,11.0,100,0.00,,,0.00,0.000000,,2013-04-03 11:42:00,
2013-04-03 04:53:00,43.0,43.0,-100.00,NW,306,4.0,11.0,100,0.00,,,0.00,0.000000,,2013-04-03 11:53:00,
2013-04-03 05:02:00,43.0,43.0,-100.00,NW,306,4.0,11.0,100,0.00,,,0.00,0.000000,,2013-04-03 12:02:00,
2013-04-03 05:12:00,43.0,43.0,-100.00,NW,306,4.0,11.0,100,0.00,,,0.00,0.000000,,2013-04-03 12:12:00,
2013-04-03 05:33:00,43.0,43.0,-100.00,NW,304,4.0,10.0,100,0.00,,,-99.99,0.000000,,2013-04-03 12:33:00,
2013-04-03 05:42:00,43.0,43.0,-100.00,NW,304,4.0,10.0,100,0.00,,,-99.99,0.000000,,2013-04-03 12:42:00,
2013-04-03 05:52:00,43.0,43.0,-100.00,NW,304,4.0,10.0,100,0.00,,,-99.99,0.000000,,2013-04-03 12:52:00,
2013-04-03 06:02:00,43.0,43.0,-100.00,NW,304,4.0,10.0,100,0.00,,,-99.99,0.000000,,2013-04-03 13:02:00,
2013-04-03 06:12:00,43.0,43.0,-100.00,NW,304,4.0,10.0,100,0.00,,,-99.99,0.000000,,2013-04-03 13:12:00,
2013-04-03 06:42:00,42.0,42.0,-100.00,NW,311,4.0,11.0,100,0.00,,,0.00,0.000000,,2013-04-03 13:42:00,
2013-04-03 06:52:00,42.0,42.0,-100.00,NW,311,4.0,11.0,100,0.00,,,0.00,0.000000,,2013-04-03 13:52:00,
2013-04-03 07:02:00,42.0,42.0,-100.00,NW,311,4.0,11.0,100,0.00,,,0.00,0.000000,,2013-04-03 14:02:00,
2013-04-03 07:12:00,42.0,42.0,-100.00,NW,311,4.0,11.0,100,0.00,,,0.00,0.000000,,2013-04-03 14:12:00,
2013-04-03 07:43:00,43.0,43.0,-100.00,NW,311,4.0,8.0,100,0.00,,,0.00,18.000000,,2013-04-03 14:43:00,
2013-04-03 07:52:00,43.0,43.0,-100.00,NW,311,4.0,8.0,100,0.00,,,0.00,18.000000,,2013-04-03 14:52:00,
2013-04-03 08:02:00,43.0,43.0,-100.00,NW,311,4.0,8.0,100,0.00,,,0.00,18.000000,,2013-04-03 15:02:00,
2013-04-03 08:12:00,43.0,43.0,-100.00,NW,311,4.0,8.0,100,0.00,,,0.00,18.000000,,2013-04-03 15:12:00,
2013-04-03 08:43:00,46.0,46.0,-100.00,NW,320,2.0,7.0,100,0.00,,,0.00,56.000000,,2013-04-03 15:43:00,
2013-04-03 08:53:00,46.0,46.0,-100.00,NW,320,2.0,7.0,100,0.00,,,0.00,56.000000,,2013-04-03 15:53:00,
2013-04-03 09:03:00,46.0,46.0,-100.00,NW,320,2.0,7.0,100,0.00,,,0.00,56.000000,,2013-04-03 16:03:00,
2013-04-03 09:12:00,46.0,46.0,-100.00,NW,320,2.0,7.0,100,0.00,,,0.00,56.000000,,2013-04-03 16:12:00,
2013-04-03 09:44:00,50.0,47.0,-100.00,WNW,282,3.0,6.0,88,0.00,,,0.00,210.000000,,2013-04-03 16:44:00,
2013-04-03 09:52:00,50.0,47.0,-100.00,WNW,282,3.0,6.0,88,0.00,,,0.00,210.000000,,2013-04-03 16:52:00,
2013-04-03 10:02:00,50.0,47.0,-100.00,WNW,282,3.0,6.0,88,0.00,,,0.00,210.000000,,2013-04-03 17:02:00,
2013-04-03 10:12:00,50.0,47.0,-100.00,WNW,282,3.0,6.0,88,0.00,,,0.00,210.000000,,2013-04-03 17:12:00,
2013-04-03 10:34:00,57.0,48.0,-100.00,SSE,159,3.0,6.0,72,0.00,,,0.00,458.000000,,2013-04-03 17:34:00,
2013-04-03 10:46:00,57.0,48.0,-100.00,SSE,159,3.0,6.0,72,0.00,,,0.00,458.000000,,2013-04-03 17:46:00,
2013-04-03 10:53:00,57.0,48.0,-100.00,SSE,159,3.0,6.0,72,0.00,,,0.00,458.000000,,2013-04-03 17:53:00,
2013-04-03 11:02:00,57.0,48.0,-100.00,SSE,159,3.0,6.0,72,0.00,,,0.00,458.000000,,2013-04-03 18:02:00,
2013-04-03 11:12:00,57.0,48.0,-100.00,SSE,159,3.0,6.0,72,0.00,,,0.00,458.000000,,2013-04-03 18:12:00,
2013-04-03 11:34:00,60.0,47.0,-100.00,SSE,162,4.0,6.0,61,0.00,,,0.00,616.000000,,2013-04-03 18:34:00,
2013-04-03 11:43:00,60.0,47.0,-100.00,SSE,162,4.0,6.0,61,0.00,,,0.00,616.000000,,2013-04-03 18:43:00,
2013-04-03 11:52:00,60.0,47.0,-100.00,SSE,162,4.0,6.0,61,0.00,,,0.00,616.000000,,2013-04-03 18:52:00,
2013-04-03 12:02:00,60.0,47.0,-100.00,SSE,162,4.0,6.0,61,0.00,,,0.00,616.000000,,2013-04-03 19:02:00,
2013-04-03 12:12:00,60.0,47.0,-100.00,SSE,162,4.0,6.0,61,0.00,,,0.00,616.000000,,2013-04-03 19:12:00,
2013-04-03 12:42:00,62.0,48.0,-100.00,SE,133,4.0,7.0,60,0.00,,,0.00,657.000000,,2013-04-03 19:42:00,
2013-04-03 12:52:00,62.0,48.0,-100.00,SE,133,4.0,7.0,60,0.00,,,0.00,657.000000,,2013-04-03 19:52:00,
2013-04-03 13:02:00,62.0,48.0,-100.00,SE,133,4.0,7.0,60,0.00,,,0.00,657.000000,,2013-04-03 20:02:00,
2013-04-03 13:12:00,62.0,48.0,-100.00,SE,133,4.0,7.0,60,0.00,,,0.00,657.000000,,2013-04-03 20:12:00,
2013-04-03 13:42:00,63.0,44.0,-100.00,South,186,4.0,7.0,50,0.00,,,0.00,631.000000,,2013-04-03 20:42:00,
2013-04-03 13:53:00,63.0,44.0,-100.00,South,186,4.0,7.0,50,0.00,,,0.00,631.000000,,2013-04-03 20:53:00,
2013-04-03 14:02:00,63.0,44.0,-100.00,South,186,4.0,7.0,50,0.00,,,0.00,631.000000,,2013-04-03 21:02:00,
2013-04-03 14:12:00,63.0,44.0,-100.00,South,186,4.0,7.0,50,0.00,,,0.00,631.000000,,2013-04-03 21:12:00,
2013-04-03 14:33:00,62.0,45.0,-100.00,NNW,332,4.0,8.0,53,0.00,,,-99.99,550.000000,,2013-04-03 21:33:00,
2013-04-03 14:42:00,62.0,45.0,-100.00,NNW,332,4.0,8.0,53,0.00,,,-99.99,550.000000,,2013-04-03 21:42:00,
2013-04-03 14:52:00,62.0,45.0,-100.00,NNW,332,4.0,8.0,53,0.00,,,-99.99,550.000000,,2013-04-03 21:52:00,
2013-04-03 15:02:00,62.0,45.0,-100.00,NNW,332,4.0,8.0,53,0.00,,,-99.99,550.000000,,2013-04-03 22:02:00,
2013-04-03 15:12:00,62.0,45.0,-100.00,NNW,332,4.0,8.0,53,0.00,,,-99.99,550.000000,,2013-04-03 22:12:00,
2013-04-03 15:33:00,62.0,43.0,-100.00,NNW,334,5.0,9.0,50,0.00,,,0.00,423.000000,,2013-04-03 22:33:00,
2013-04-03 15:42:00,62.0,43.0,-100.00,NNW,334,5.0,9.0,50,0.00,,,0.00,423.000000,,2013-04-03 22:42:00,
2013-04-03 15:52:00,62.0,43.0,-100.00,NNW,334,5.0,9.0,50,0.00,,,0.00,423.000000,,2013-04-03 22:52:00,
2013-04-03 16:02:00,62.0,43.0,-100.00,NNW,334,5.0,9.0,50,0.00,,,0.00,423.000000,,2013-04-03 23:02:00,
2013-04-03 16:11:00,62.0,43.0,-100.00,NNW,334,5.0,9.0,50,0.00,,,0.00,423.000000,,2013-04-03 23:11:00,
2013-04-03 16:33:00,61.0,43.0,-100.00,NW,326,5.0,10.0,52,0.00,,,0.00,300.000000,,2013-04-03 23:33:00,
2013-04-03 16:43:00,61.0,43.0,-100.00,NW,326,5.0,10.0,52,0.00,,,0.00,300.000000,,2013-04-03 23:43:00,
2013-04-03 16:54:00,61.0,43.0,-100.00,NW,326,5.0,10.0,52,0.00,,,0.00,300.000000,,2013-04-03 23:54:00,
2013-04-03 17:02:00,61.0,43.0,-100.00,NW,326,5.0,10.0,52,0.00,,,0.00,300.000000,,2013-04-04 00:02:00,
2013-04-03 17:12:00,61.0,43.0,-100.00,NW,326,5.0,10.0,52,0.00,,,0.00,300.000000,,2013-04-04 00:12:00,
2013-04-03 17:32:00,60.0,47.0,-100.00,NNW,329,6.0,10.0,61,0.00,,,0.00,219.000000,,2013-04-04 00:32:00,
2013-04-03 17:43:00,60.0,47.0,-100.00,NNW,329,6.0,10.0,61,0.00,,,0.00,219.000000,,2013-04-04 00:43:00,
2013-04-03 17:52:00,60.0,47.0,-100.00,NNW,329,6.0,10.0,61,0.00,,,0.00,219.000000,,2013-04-04 00:52:00,
2013-04-03 18:02:00,60.0,47.0,-100.00,NNW,329,6.0,10.0,61,0.00,,,0.00,219.000000,,2013-04-04 01:02:00,
2013-04-03 18:11:00,60.0,47.0,-100.00,NNW,329,6.0,10.0,61,0.00,,,0.00,219.000000,,2013-04-04 01:11:00,
2013-04-03 18:32:00,58.0,44.0,-100.00,NW,311,3.0,12.0,60,0.00,,,0.00,104.000000,,2013-04-04 01:32:00,
2013-04-03 18:43:00,58.0,44.0,-100.00,NW,311,3.0,12.0,60,0.00,,,0.00,104.000000,,2013-04-04 01:43:00,
2013-04-03 18:52:00,58.0,44.0,-100.00,NW,311,3.0,12.0,60,0.00,,,0.00,104.000000,,2013-04-04 01:52:00,
2013-04-03 19:02:00,58.0,44.0,-100.00,NW,311,3.0,12.0,60,0.00,,,0.00,104.000000,,2013-04-04 02:02:00,
2013-04-03 19:11:00,58.0,44.0,-100.00,NW,311,3.0,12.0,60,0.00,,,0.00,104.000000,,2013-04-04 02:11:00,
2013-04-03 20:02:00,56.0,44.0,-100.00,NW,317,2.0,7.0,63,0.00,,,0.00,46.000000,,2013-04-04 03:02:00,
2013-04-03 20:11:00,56.0,44.0,-100.00,NW,317,2.0,7.0,63,0.00,,,0.00,46.000000,,2013-04-04 03:11:00,
2013-04-03 20:34:00,55.0,43.0,-100.00,NW,324,3.0,6.0,63,0.00,,,0.00,3.000000,,2013-04-04 03:34:00,
2013-04-03 20:45:00,55.0,43.0,-100.00,NW,324,3.0,6.0,63,0.00,,,0.00,3.000000,,2013-04-04 03:45:00,
2013-04-03 20:53:00,55.0,43.0,-100.00,NW,324,3.0,6.0,63,0.00,,,0.00,3.000000,,2013-04-04 03:53:00,
2013-04-03 21:02:00,55.0,43.0,-100.00,NW,324,3.0,6.0,63,0.00,,,0.00,3.000000,,2013-04-04 04:02:00,
2013-04-03 21:12:00,55.0,43.0,-100.00,NW,324,3.0,6.0,63,0.00,,,0.00,3.000000,,2013-04-04 04:12:00,
2013-04-03 21:43:00,55.0,41.0,-100.00,NNW,333,4.0,5.0,59,0.00,,,0.00,0.000000,,2013-04-04 04:43:00,
2013-04-03 21:53:00,55.0,41.0,-100.00,NNW,333,4.0,5.0,59,0.00,,,0.00,0.000000,,2013-04-04 04:53:00,
2013-04-03 22:02:00,55.0,41.0,-100.00,NNW,333,4.0,5.0,59,0.00,,,0.00,0.000000,,2013-04-04 05:02:00,
2013-04-03 22:12:00,55.0,41.0,-100.00,NNW,333,4.0,5.0,59,0.00,,,0.00,0.000000,,2013-04-04 05:12:00,
2013-04-03 22:32:00,55.0,42.0,-100.00,NNW,330,3.0,5.0,62,0.00,,,0.00,0.000000,,2013-04-04 05:32:00,
2013-04-03 22:42:00,55.0,42.0,-100.00,NNW,330,3.0,5.0,62,0.00,,,0.00,0.000000,,2013-04-04 05:42:00,
2013-04-03 22:52:00,55.0,42.0,-100.00,NNW,330,3.0,5.0,62,0.00,,,0.00,0.000000,,2013-04-04 05:52:00,
2013-04-03 23:02:00,55.0,42.0,-100.00,NNW,330,3.0,5.0,62,0.00,,,0.00,0.000000,,2013-04-04 06:02:00,
2013-04-03 23:12:00,55.0,42.0,-100.00,NNW,330,3.0,5.0,62,0.00,,,0.00,0.000000,,2013-04-04 06:12:00,
2013-04-03 23:33:00,54.0,43.0,-100.00,NNW,333,3.0,4.0,65,0.00,,,0.00,0.000000,,2013-04-04 06:33:00,
2013-04-03 23:42:00,54.0,43.0,-100.00,NNW,333,3.0,4.0,65,0.00,,,0.00,0.000000,,2013-04-04 06:42:00,
2013-04-03 23:52:00,54.0,43.0,-100.00,NNW,333,3.0,4.0,65,0.00,,,0.00,0.000000,,2013-04-04 06:52:00,